Back to catalog

YAOGAN-43 O1F

AliveMilitaryVLEO
NORAD 60463·PAYLOAD·🇨🇳 China

Launched Aug 16, 2024 from Xichang Satellite Launch Center

Loading…

Next Passes (next 24 hours)

TLE

FreshSource: Space-Track

Epoch: Sep 14, 2026, 13:37 UTC

1 60463U 24148F   26257.56778321  .00011587  00000-0  33787-3 0  9992
2 60463  34.9916 297.0058 0007217 308.3485  51.6584 15.34516436116018

Track YAOGAN-43 O1F in real time with AllMySat

Download on the App Store